Find STARLINK-37543

NORAD ID: 68911 Constellation: starlink operational
LEOCIRCULARRETROGRADE

Live-Position

3D-Globus wird geladen...

Über STARLINK-37543

Beschreibung wird geladen...

Nächste Überflüge

Passes for default location (London). Set your location on the main map for personalized predictions.

Höhenverlauf

Loading altitude history...

Zweizeiliger Elementsatz

1 68911U 26097S 26125.50001156 -.02048048 12035-2 -48299-2 0 9998
2 68911 97.2870 320.4963 0001428 86.4224 150.9452 15.96981164 2062
Epoch: 5. Mai 2026 • Age: 8 hours